| time (UTC) | temp C | wind direction | speed KPH | gust KPH | rain 1hr cm | rain 24hr cm | rain mn cm | humidity % | barometer mb |
| 20260505215600 | 22 | 205 | 24.1 | 35.4 | 0.00 | 0.00 | 0.00 | 81 | 1007.2 |
| 20260505215055 | 22 | 149 | 24.1 | 43.5 | 0.00 | 0.00 | 0.00 | 81 | 1007.2 |
| 20260505214609 | 22 | 186 | 27.4 | 43.5 | 0.00 | 0.00 | 0.00 | 81 | 1007.4 |
| 20260505214053 | 22 | 203 | 30.6 | 43.5 | 0.00 | 0.00 | 0.00 | 81 | 1007.4 |
| 20260505213554 | 22 | 175 | 27.4 | 37.0 | 0.00 | 0.00 | 0.00 | 81 | 1007.3 |
| 20260505213052 | 22 | 167 | 24.1 | 40.2 | 0.00 | 0.00 | 0.00 | 82 | 1007.3 |
| 20260505212554 | 22 | 170 | 27.4 | 40.2 | 0.00 | 0.00 | 0.00 | 81 | 1007.3 |
| 20260505212053 | 22 | 175 | 25.7 | 40.2 | 0.00 | 0.00 | 0.00 | 81 | 1007.4 |
| 20260505211556 | 22 | 183 | 27.4 | 45.1 | 0.00 | 0.00 | 0.00 | 81 | 1007.4 |
| 20260505211053 | 22 | 196 | 33.8 | 45.1 | 0.00 | 0.00 | 0.00 | 81 | 1007.6 |
| 20260505210553 | 22 | 167 | 33.8 | 48.3 | 0.00 | 0.00 | 0.00 | 80 | 1007.5 |
| 20260505210055 | 22 | 172 | 32.2 | 48.3 | 0.00 | 0.00 | 0.00 | 80 | 1007.5 |
| 20260505205553 | 22 | 160 | 37.0 | 48.3 | 0.00 | 0.00 | 0.00 | 79 | 1007.6 |
| 20260505205054 | 22 | 190 | 33.8 | 51.5 | 0.00 | 0.00 | 0.00 | 78 | 1007.7 |
| 20260505204553 | 22 | 190 | 32.2 | 51.5 | 0.00 | 0.00 | 0.00 | 78 | 1007.6 |
| 20260505204053 | 23 | 176 | 29.0 | 37.0 | 0.00 | 0.00 | 0.00 | 77 | 1007.8 |
| 20260505203553 | 23 | 176 | 25.7 | 35.4 | 0.00 | 0.00 | 0.00 | 77 | 1007.8 |
| 20260505203056 | 23 | 170 | 24.1 | 32.2 | 0.00 | 0.00 | 0.00 | 77 | 1008.0 |
| 20260505202555 | 22 | 167 | 19.3 | 38.6 | 0.00 | 0.00 | 0.00 | 78 | 1008.0 |
| 20260505202055 | 22 | 192 | 25.7 | 43.5 | 0.00 | 0.00 | 0.00 | 78 | 1008.1 |
| 20260505201557 | 22 | 164 | 30.6 | 43.5 | 0.00 | 0.00 | 0.00 | 77 | 1008.1 |
| 20260505201056 | 23 | 186 | 30.6 | 43.5 | 0.00 | 0.00 | 0.00 | 76 | 1008.0 |
| 20260505200553 | 23 | 160 | 27.4 | 37.0 | 0.00 | 0.00 | 0.00 | 75 | 1008.1 |
| 20260505200056 | 23 | 177 | 25.7 | 41.8 | 0.00 | 0.00 | 0.00 | 75 | 1008.2 |
| 20260505195552 | 23 | 193 | 30.6 | 41.8 | 0.00 | 0.00 | 0.00 | 75 | 1008.2 |
| 20260505195052 | 23 | 200 | 32.2 | 46.7 | 0.00 | 0.00 | 0.00 | 75 | 1008.1 |
| 20260505194555 | 23 | 205 | 32.2 | 46.7 | 0.00 | 0.00 | 0.00 | 74 | 1008.2 |
| 20260505194053 | 23 | 196 | 27.4 | 41.8 | 0.00 | 0.00 | 0.00 | 74 | 1008.2 |
| 20260505193556 | 23 | 200 | 32.2 | 46.7 | 0.00 | 0.00 | 0.00 | 74 | 1008.0 |
| 20260505193053 | 23 | 204 | 32.2 | 46.7 | 0.00 | 0.00 | 0.00 | 74 | 1008.3 |
| 20260505192553 | 23 | 191 | 30.6 | 43.5 | 0.00 | 0.00 | 0.00 | 74 | 1008.3 |
| 20260505192053 | 23 | 180 | 30.6 | 41.8 | 0.00 | 0.00 | 0.00 | 74 | 1008.3 |
| 20260505191605 | 23 | 179 | 30.6 | 41.8 | 0.00 | 0.00 | 0.00 | 74 | 1008.4 |
| 20260505191058 | 23 | 167 | 25.7 | 41.8 | 0.00 | 0.00 | 0.00 | 74 | 1008.4 |
| 20260505190552 | 23 | 190 | 30.6 | 40.2 | 0.00 | 0.00 | 0.00 | 74 | 1008.3 |
| 20260505185556 | 23 | 196 | 22.5 | 48.3 | 0.00 | 0.00 | 0.00 | 74 | 1008.4 |
| 20260505185056 | 23 | 203 | 29.0 | 48.3 | 0.00 | 0.00 | 0.00 | 75 | 1008.3 |
| 20260505184558 | 23 | 189 | 35.4 | 48.3 | 0.00 | 0.00 | 0.00 | 75 | 1008.5 |
| 20260505184053 | 22 | 188 | 25.7 | 46.7 | 0.00 | 0.00 | 0.00 | 75 | 1008.5 |
| 20260505183553 | 22 | 193 | 29.0 | 46.7 | 0.00 | 0.00 | 0.00 | 75 | 1008.5 |
| 20260505183114 | 22 | 196 | 33.8 | 46.7 | 0.00 | 0.00 | 0.00 | 75 | 1008.4 |
| 20260505182553 | 22 | 188 | 32.2 | 43.5 | 0.00 | 0.00 | 0.00 | 75 | 1008.4 |
| 20260505182053 | 22 | 162 | 29.0 | 41.8 | 0.00 | 0.00 | 0.00 | 75 | 1008.3 |
| 20260505181557 | 22 | 162 | 24.1 | 41.8 | 0.00 | 0.00 | 0.00 | 77 | 1008.4 |
| 20260505181056 | 22 | 178 | 19.3 | 35.4 | 0.00 | 0.00 | 0.00 | 77 | 1008.4 |
| 20260505180554 | 22 | 169 | 25.7 | 37.0 | 0.00 | 0.00 | 0.00 | 76 | 1008.4 |
| 20260505180054 | 21 | 188 | 24.1 | 37.0 | 0.00 | 0.00 | 0.00 | 78 | 1008.6 |
| 20260505175553 | 21 | 208 | 24.1 | 37.0 | 0.00 | 0.00 | 0.00 | 78 | 1008.6 |
| 20260505175056 | 21 | 182 | 20.9 | 45.1 | 0.00 | 0.00 | 0.00 | 78 | 1008.8 |
| 20260505174554 | 21 | 160 | 24.1 | 45.1 | 0.00 | 0.00 | 0.00 | 79 | 1008.7 |
| 20260505174053 | 21 | 173 | 32.2 | 45.1 | 0.00 | 0.00 | 0.00 | 79 | 1008.7 |
| 20260505173555 | 21 | 170 | 30.6 | 41.8 | 0.00 | 0.00 | 0.00 | 79 | 1008.8 |
| 20260505173101 | 21 | 183 | 30.6 | 43.5 | 0.00 | 0.00 | 0.00 | 79 | 1008.8 |
| 20260505172557 | 21 | 192 | 32.2 | 45.1 | 0.00 | 0.00 | 0.00 | 79 | 1008.9 |
| 20260505172055 | 21 | 198 | 30.6 | 45.1 | 0.00 | 0.00 | 0.00 | 78 | 1009.0 |
| 20260505171601 | 21 | 183 | 33.8 | 45.1 | 0.00 | 0.00 | 0.00 | 77 | 1009.1 |
| 20260505171056 | 21 | 165 | 30.6 | 41.8 | 0.00 | 0.00 | 0.00 | 77 | 1009.1 |
| 20260505170554 | 21 | 184 | 27.4 | 41.8 | 0.00 | 0.00 | 0.00 | 77 | 1009.1 |
| 20260505170058 | 21 | 186 | 30.6 | 45.1 | 0.00 | 0.00 | 0.00 | 77 | 1009.2 |
| 20260505165558 | 21 | 175 | 30.6 | 45.1 | 0.00 | 0.00 | 0.00 | 76 | 1009.1 |
| 20260505165053 | 21 | 182 | 32.2 | 53.1 | 0.00 | 0.00 | 0.00 | 76 | 1009.1 |
| 20260505164553 | 21 | 169 | 30.6 | 53.1 | 0.00 | 0.00 | 0.00 | 76 | 1009.2 |
| 20260505164053 | 21 | 165 | 37.0 | 53.1 | 0.00 | 0.00 | 0.00 | 76 | 1009.3 |
| 20260505163553 | 21 | 187 | 30.6 | 43.5 | 0.00 | 0.00 | 0.00 | 76 | 1009.3 |
| 20260505163056 | 21 | 167 | 29.0 | 45.1 | 0.00 | 0.00 | 0.00 | 75 | 1009.4 |
| 20260505162552 | 21 | 224 | 29.0 | 45.1 | 0.00 | 0.00 | 0.00 | 76 | 1009.4 |
| 20260505162054 | 21 | 199 | 32.2 | 46.7 | 0.00 | 0.00 | 0.00 | 76 | 1009.4 |
| 20260505161616 | 21 | 195 | 29.0 | 46.7 | 0.00 | 0.00 | 0.00 | 75 | 1009.3 |
| 20260505161054 | 21 | 180 | 35.4 | 46.7 | 0.00 | 0.00 | 0.00 | 75 | 1009.3 |
| 20260505160556 | 21 | 183 | 27.4 | 41.8 | 0.00 | 0.00 | 0.00 | 76 | 1009.2 |
| 20260505153103 | 20 | 212 | 25.7 | 40.2 | 0.00 | 0.00 | 0.00 | 77 | 1009.5 |
| 20260505152553 | 20 | 175 | 30.6 | 40.2 | 0.00 | 0.00 | 0.00 | 77 | 1009.4 |
| 20260505152052 | 20 | 165 | 27.4 | 35.4 | 0.00 | 0.00 | 0.00 | 77 | 1009.5 |
| 20260505151614 | 20 | 194 | 20.9 | 40.2 | 0.00 | 0.00 | 0.00 | 78 | 1009.6 |
| 20260505151055 | 20 | 181 | 27.4 | 40.2 | 0.00 | 0.00 | 0.00 | 78 | 1009.6 |
| 20260505150553 | 20 | 183 | 24.1 | 33.8 | 0.00 | 0.00 | 0.00 | 78 | 1009.6 |
| 20260505140553 | 18 | 210 | 20.9 | 30.6 | 0.00 | 0.00 | 0.00 | 77 | 1009.9 |
| 20260505124559 | 17 | 208 | 25.7 | 37.0 | 0.00 | 0.00 | 0.00 | 77 | 1009.3 |
| 20260505124053 | 17 | 186 | 24.1 | 35.4 | 0.00 | 0.00 | 0.00 | 77 | 1009.4 |
| 20260505123556 | 17 | 195 | 20.9 | 32.2 | 0.00 | 0.00 | 0.00 | 77 | 1009.4 |
| 20260505123057 | 17 | 195 | 19.3 | 33.8 | 0.00 | 0.00 | 0.00 | 78 | 1009.2 |
| 20260505122554 | 17 | 174 | 24.1 | 33.8 | 0.00 | 0.00 | 0.00 | 78 | 1009.1 |
| 20260505122055 | 17 | 201 | 24.1 | 29.0 | 0.00 | 0.00 | 0.00 | 79 | 1009.1 |
| 20260505121556 | 17 | 195 | 20.9 | 32.2 | 0.00 | 0.00 | 0.00 | 79 | 1009.1 |
| 20260505121057 | 16 | 195 | 22.5 | 32.2 | 0.00 | 0.00 | 0.00 | 79 | 1009.0 |
| 20260505120557 | 16 | 183 | 24.1 | 32.2 | 0.00 | 0.00 | 0.00 | 79 | 1008.8 |
| 20260505120110 | 16 | 183 | 22.5 | 32.2 | 0.00 | 0.00 | 0.00 | 79 | 1008.7 |
| 20260505115556 | 16 | 187 | 20.9 | 32.2 | 0.00 | 0.00 | 0.00 | 80 | 1008.7 |
| 20260505115057 | 16 | 189 | 19.3 | 33.8 | 0.00 | 0.00 | 0.00 | 79 | 1008.7 |
| 20260505114600 | 16 | 179 | 24.1 | 33.8 | 0.00 | 0.00 | 0.00 | 79 | 1008.7 |
| 20260505114057 | 16 | 167 | 22.5 | 33.8 | 0.00 | 0.00 | 0.00 | 79 | 1008.6 |
| 20260505113555 | 16 | 182 | 19.3 | 29.0 | 0.00 | 0.00 | 0.00 | 80 | 1008.6 |
| 20260505113059 | 16 | 166 | 20.9 | 29.0 | 0.00 | 0.00 | 0.00 | 80 | 1008.6 |
| 20260505112555 | 16 | 172 | 17.7 | 27.4 | 0.00 | 0.00 | 0.00 | 80 | 1008.7 |
| 20260505112055 | 16 | 177 | 19.3 | 32.2 | 0.00 | 0.00 | 0.00 | 80 | 1008.6 |
| 20260505111555 | 16 | 169 | 19.3 | 32.2 | 0.00 | 0.00 | 0.00 | 80 | 1008.6 |
| 20260505111055 | 16 | 183 | 19.3 | 32.2 | 0.00 | 0.00 | 0.00 | 80 | 1008.6 |
| 20260505110555 | 16 | 184 | 14.5 | 29.0 | 0.00 | 0.00 | 0.00 | 80 | 1008.6 |
| 20260505102056 | 16 | 165 | 17.7 | 29.0 | 0.00 | 0.00 | 0.00 | 78 | 1008.3 |
| 20260505101554 | 16 | 177 | 17.7 | 29.0 | 0.00 | 0.00 | 0.00 | 77 | 1008.4 |
| 20260505101055 | 16 | 169 | 16.1 | 27.4 | 0.00 | 0.00 | 0.00 | 77 | 1008.5 |
| 20260505100555 | 16 | 159 | 16.1 | 27.4 | 0.00 | 0.00 | 0.00 | 77 | 1008.5 |
| 20260505100055 | 16 | 155 | 14.5 | 24.1 | 0.00 | 0.00 | 0.00 | 77 | 1008.4 |
| 20260505095555 | 16 | 171 | 14.5 | 24.1 | 0.00 | 0.00 | 0.00 | 77 | 1008.4 |
| 20260505095054 | 16 | 179 | 12.9 | 24.1 | 0.00 | 0.00 | 0.00 | 77 | 1008.4 |
| 20260505094553 | 16 | 171 | 16.1 | 24.1 | 0.00 | 0.00 | 0.00 | 77 | 1008.5 |
| 20260505094055 | 16 | 162 | 12.9 | 22.5 | 0.00 | 0.00 | 0.00 | 77 | 1008.5 |
| 20260505093555 | 16 | 155 | 14.5 | 22.5 | 0.00 | 0.00 | 0.00 | 76 | 1008.6 |
| 20260505093056 | 16 | 179 | 16.1 | 22.5 | 0.00 | 0.00 | 0.00 | 76 | 1008.8 |
| 20260505092556 | 16 | 169 | 14.5 | 22.5 | 0.00 | 0.00 | 0.00 | 76 | 1008.8 |
| 20260505092054 | 17 | 203 | 12.9 | 22.5 | 0.00 | 0.00 | 0.00 | 76 | 1008.7 |
| 20260505091552 | 17 | 176 | 12.9 | 24.1 | 0.00 | 0.00 | 0.00 | 75 | 1008.8 |
| 20260505091059 | 17 | 187 | 14.5 | 24.1 | 0.00 | 0.00 | 0.00 | 75 | 1008.8 |
| 20260505090555 | 17 | 162 | 16.1 | 29.0 | 0.00 | 0.00 | 0.00 | 74 | 1008.8 |
| 20260505090053 | 17 | 181 | 17.7 | 29.0 | 0.00 | 0.00 | 0.00 | 74 | 1008.8 |
| 20260505085555 | 17 | 155 | 17.7 | 27.4 | 0.00 | 0.00 | 0.00 | 74 | 1008.8 |
| 20260505085055 | 17 | 181 | 14.5 | 25.7 | 0.00 | 0.00 | 0.00 | 74 | 1008.7 |
| 20260505084554 | 17 | 174 | 14.5 | 29.0 | 0.00 | 0.00 | 0.00 | 73 | 1008.8 |
| 20260505084055 | 17 | 171 | 17.7 | 29.0 | 0.00 | 0.00 | 0.00 | 73 | 1008.9 |
| 20260505083554 | 17 | 199 | 17.7 | 27.4 | 0.00 | 0.00 | 0.00 | 73 | 1009.0 |
| 20260505083054 | 17 | 185 | 17.7 | 25.7 | 0.00 | 0.00 | 0.00 | 73 | 1009.0 |
| 20260505082554 | 17 | 170 | 12.9 | 20.9 | 0.00 | 0.00 | 0.00 | 73 | 1008.9 |
| 20260505082055 | 17 | 172 | 12.9 | 20.9 | 0.00 | 0.00 | 0.00 | 73 | 1008.9 |
| 20260505081604 | 17 | 175 | 12.9 | 19.3 | 0.00 | 0.00 | 0.00 | 73 | 1008.9 |
| 20260505081055 | 17 | 160 | 11.3 | 17.7 | 0.00 | 0.00 | 0.00 | 73 | 1008.9 |
| 20260505080555 | 17 | 189 | 8.0 | 19.3 | 0.00 | 0.00 | 0.00 | 72 | 1008.9 |
| 20260505080054 | 17 | 201 | 8.0 | 19.3 | 0.00 | 0.00 | 0.00 | 72 | 1008.7 |
| 20260505075551 | 17 | 179 | 11.3 | 20.9 | 0.00 | 0.00 | 0.00 | 72 | 1009.0 |
| 20260505075051 | 17 | 172 | 11.3 | 20.9 | 0.00 | 0.00 | 0.00 | 72 | 1009.1 |
| 20260505074558 | 17 | 201 | 11.3 | 17.7 | 0.00 | 0.00 | 0.00 | 72 | 1009.1 |
| 20260505074055 | 17 | 178 | 6.4 | 14.5 | 0.00 | 0.00 | 0.00 | 72 | 1009.4 |
| 20260505073555 | 17 | 179 | 4.8 | 16.1 | 0.00 | 0.00 | 0.00 | 71 | 1009.5 |
| 20260505073110 | 17 | 163 | 0.0 | 16.1 | 0.00 | 0.00 | 0.00 | 71 | 1009.5 |
| 20260505072554 | 17 | 172 | 1.6 | 16.1 | 0.00 | 0.00 | 0.00 | 71 | 1009.5 |
| 20260505072056 | 17 | 156 | 6.4 | 17.7 | 0.00 | 0.00 | 0.00 | 70 | 1009.6 |
| 20260505071558 | 17 | 169 | 8.0 | 17.7 | 0.00 | 0.00 | 0.00 | 70 | 1009.6 |
| 20260505071055 | 17 | 178 | 9.7 | 16.1 | 0.00 | 0.00 | 0.00 | 70 | 1009.6 |
| 20260505070557 | 17 | 141 | 9.7 | 17.7 | 0.00 | 0.00 | 0.00 | 70 | 1009.6 |
| 20260505070055 | 17 | 199 | 6.4 | 17.7 | 0.00 | 0.00 | 0.00 | 69 | 1009.7 |
| 20260505065554 | 17 | 175 | 9.7 | 17.7 | 0.00 | 0.00 | 0.00 | 69 | 1009.8 |
| 20260505065054 | 17 | 179 | 11.3 | 16.1 | 0.00 | 0.00 | 0.00 | 69 | 1009.8 |
| 20260505064552 | 17 | 177 | 8.0 | 14.5 | 0.00 | 0.00 | 0.00 | 69 | 1009.9 |
| 20260505064054 | 17 | 0 | 9.7 | 14.5 | 0.00 | 0.00 | 0.00 | 69 | 1010.0 |
| 20260505063554 | 17 | 153 | 6.4 | 14.5 | 0.00 | 0.00 | 0.00 | 69 | 1010.0 |
| 20260505063054 | 17 | 181 | 0.0 | 11.3 | 0.00 | 0.00 | 0.00 | 69 | 1010.0 |
| 20260505062552 | 17 | 174 | 1.6 | 16.1 | 0.00 | 0.00 | 0.00 | 69 | 1009.9 |
| 20260505062053 | 17 | 0 | 4.8 | 16.1 | 0.00 | 0.00 | 0.00 | 68 | 1009.9 |
| 20260505061556 | 17 | 160 | 6.4 | 14.5 | 0.00 | 0.00 | 0.00 | 68 | 1010.1 |
| 20260505061053 | 17 | 176 | 3.2 | 14.5 | 0.00 | 0.00 | 0.00 | 68 | 1009.9 |
| 20260505060554 | 18 | 0 | 1.6 | 14.5 | 0.00 | 0.00 | 0.00 | 67 | 1010.1 |
| 20260505060056 | 18 | 171 | 4.8 | 14.5 | 0.00 | 0.00 | 0.00 | 67 | 1010.1 |
| 20260505055553 | 18 | 186 | 3.2 | 14.5 | 0.00 | 0.00 | 0.00 | 67 | 1010.0 |
| 20260505055054 | 18 | 165 | 6.4 | 14.5 | 0.00 | 0.00 | 0.00 | 66 | 1010.0 |
| 20260505054622 | 18 | 172 | 4.8 | 14.5 | 0.00 | 0.00 | 0.00 | 66 | 1010.2 |
| 20260505054053 | 18 | 167 | 1.6 | 14.5 | 0.00 | 0.00 | 0.00 | 66 | 1010.1 |
| 20260505053553 | 18 | 190 | 0.0 | 14.5 | 0.00 | 0.00 | 0.00 | 65 | 1010.1 |
| 20260505053108 | 18 | 0 | 6.4 | 16.1 | 0.00 | 0.00 | 0.00 | 65 | 1010.1 |
| 20260505052556 | 18 | 198 | 8.0 | 16.1 | 0.00 | 0.00 | 0.00 | 64 | 1010.3 |
| 20260505052052 | 18 | 188 | 6.4 | 16.1 | 0.00 | 0.00 | 0.00 | 64 | 1010.1 |
| 20260505051557 | 18 | 162 | 8.0 | 16.1 | 0.00 | 0.00 | 0.00 | 64 | 1010.0 |
| 20260505051054 | 18 | 165 | 3.2 | 17.7 | 0.00 | 0.00 | 0.00 | 64 | 1010.1 |
| 20260505050552 | 18 | 165 | 6.4 | 19.3 | 0.00 | 0.00 | 0.00 | 63 | 1010.1 |
| 20260505041600 | 19 | 0 | 8.0 | 19.3 | 0.00 | 0.00 | 0.00 | 60 | 1010.3 |
| 20260505041052 | 19 | 0 | 4.8 | 17.7 | 0.00 | 0.00 | 0.00 | 60 | 1010.3 |
| 20260505040553 | 19 | 182 | 1.6 | 17.7 | 0.00 | 0.00 | 0.00 | 60 | 1010.5 |
| 20260505040056 | 19 | 192 | 4.8 | 17.7 | 0.00 | 0.00 | 0.00 | 60 | 1010.6 |
| 20260505035553 | 19 | 178 | 6.4 | 19.3 | 0.00 | 0.00 | 0.00 | 59 | 1010.4 |
| 20260505035052 | 20 | 198 | 11.3 | 20.9 | 0.00 | 0.00 | 0.00 | 59 | 1010.4 |
| 20260505034551 | 20 | 176 | 11.3 | 20.9 | 0.00 | 0.00 | 0.00 | 59 | 1010.4 |
| 20260505034055 | 20 | 181 | 11.3 | 20.9 | 0.00 | 0.00 | 0.00 | 59 | 1010.0 |
| 20260505033552 | 20 | 149 | 6.4 | 20.9 | 0.00 | 0.00 | 0.00 | 59 | 1010.2 |
| 20260505033057 | 20 | 177 | 8.0 | 19.3 | 0.00 | 0.00 | 0.00 | 59 | 1010.2 |
| 20260505032552 | 20 | 0 | 8.0 | 19.3 | 0.00 | 0.00 | 0.00 | 59 | 1010.1 |
| 20260505032051 | 20 | 198 | 6.4 | 16.1 | 0.00 | 0.00 | 0.00 | 59 | 1009.9 |
| 20260505031608 | 20 | 0 | 3.2 | 16.1 | 0.00 | 0.00 | 0.00 | 59 | 1010.0 |
| 20260505031052 | 20 | 185 | 0.0 | 14.5 | 0.00 | 0.00 | 0.00 | 59 | 1010.3 |
| 20260505030552 | 20 | 172 | 3.2 | 14.5 | 0.00 | 0.00 | 0.00 | 59 | 1010.0 |
| 20260505030057 | 20 | 0 | 3.2 | 16.1 | 0.00 | 0.00 | 0.00 | 59 | 1010.0 |
| 20260505025553 | 20 | 0 | 3.2 | 16.1 | 0.00 | 0.00 | 0.00 | 58 | 1010.0 |
| 20260505025054 | 20 | 181 | 1.6 | 16.1 | 0.00 | 0.00 | 0.00 | 58 | 1010.0 |
| 20260505024559 | 20 | 0 | 1.6 | 12.9 | 0.00 | 0.00 | 0.00 | 58 | 1010.0 |
| 20260505024054 | 20 | 0 | 0.0 | 8.0 | 0.00 | 0.00 | 0.00 | 57 | 1009.9 |
| 20260505023554 | 20 | 162 | 0.0 | 0.0 | 0.00 | 0.00 | 0.00 | 57 | 1009.9 |
| 20260505023121 | 20 | 0 | 0.0 | 11.3 | 0.00 | 0.00 | 0.00 | 56 | 1010.0 |
| 20260505022552 | 20 | 0 | 0.0 | 11.3 | 0.00 | 0.00 | 0.00 | 55 | 1010.0 |
| 20260505022052 | 20 | 183 | 3.2 | 11.3 | 0.00 | 0.00 | 0.00 | 54 | 1009.9 |
| 20260505021555 | 20 | 0 | 0.0 | 12.9 | 0.00 | 0.00 | 0.00 | 54 | 1009.7 |
| 20260505021053 | 20 | 0 | 1.6 | 14.5 | 0.00 | 0.00 | 0.00 | 54 | 1009.5 |
| 20260505020555 | 21 | 174 | 3.2 | 16.1 | 0.00 | 0.00 | 0.00 | 53 | 1009.6 |
| 20260505020054 | 21 | 0 | 3.2 | 16.1 | 0.00 | 0.00 | 0.00 | 52 | 1009.5 |
| 20260505015552 | 21 | 188 | 3.2 | 16.1 | 0.00 | 0.00 | 0.00 | 52 | 1009.6 |
| 20260505015054 | 21 | 175 | 6.4 | 16.1 | 0.00 | 0.00 | 0.00 | 51 | 1009.5 |
| 20260505014604 | 21 | 194 | 4.8 | 20.9 | 0.00 | 0.00 | 0.00 | 51 | 1009.5 |
| 20260505014052 | 21 | 193 | 8.0 | 24.1 | 0.00 | 0.00 | 0.00 | 50 | 1009.5 |
| 20260505013552 | 21 | 205 | 11.3 | 24.1 | 0.00 | 0.00 | 0.00 | 50 | 1009.4 |
| 20260505013106 | 21 | 155 | 9.7 | 24.1 | 0.00 | 0.00 | 0.00 | 50 | 1009.4 |
| 20260505012552 | 22 | 172 | 11.3 | 24.1 | 0.00 | 0.00 | 0.00 | 50 | 1009.5 |
| 20260505012052 | 22 | 187 | 6.4 | 25.7 | 0.00 | 0.00 | 0.00 | 50 | 1009.4 |
| 20260505011554 | 22 | 189 | 11.3 | 25.7 | 0.00 | 0.00 | 0.00 | 49 | 1009.5 |
| 20260505011052 | 22 | 183 | 14.5 | 25.7 | 0.00 | 0.00 | 0.00 | 49 | 1009.4 |
| 20260505010552 | 22 | 168 | 11.3 | 30.6 | 0.00 | 0.00 | 0.00 | 49 | 1009.4 |
| 20260505010055 | 22 | 186 | 16.1 | 35.4 | 0.00 | 0.00 | 0.00 | 48 | 1009.5 |
| 20260505005555 | 22 | 172 | 16.1 | 35.4 | 0.00 | 0.00 | 0.00 | 48 | 1009.6 |
| 20260505005053 | 22 | 197 | 19.3 | 35.4 | 0.00 | 0.00 | 0.00 | 47 | 1009.3 |
| 20260505004557 | 22 | 161 | 17.7 | 29.0 | 0.00 | 0.00 | 0.00 | 47 | 1009.3 |
| 20260505004051 | 22 | 198 | 17.7 | 32.2 | 0.00 | 0.00 | 0.00 | 48 | 1009.3 |
| 20260505003551 | 23 | 178 | 16.1 | 32.2 | 0.00 | 0.00 | 0.00 | 48 | 1009.3 |
| 20260505003055 | 23 | 177 | 16.1 | 35.4 | 0.00 | 0.00 | 0.00 | 47 | 1009.5 |
| 20260505002555 | 23 | 189 | 19.3 | 35.4 | 0.00 | 0.00 | 0.00 | 47 | 1009.4 |
| 20260505002052 | 23 | 186 | 19.3 | 35.4 | 0.00 | 0.00 | 0.00 | 47 | 1009.4 |
| 20260505001559 | 23 | 182 | 11.3 | 38.6 | 0.00 | 0.00 | 0.00 | 47 | 1009.3 |
| 20260505001052 | 23 | 191 | 20.9 | 38.6 | 0.00 | 0.00 | 0.00 | 47 | 1009.4 |
| 20260505000552 | 23 | 223 | 17.7 | 38.6 | 0.00 | 0.00 | 0.00 | 46 | 1009.4 |
| 20260505000113 | 23 | 221 | 17.7 | 35.4 | 0.00 | 0.00 | 0.00 | 46 | 1009.7 |
| 20260504235555 | 23 | 205 | 20.9 | 33.8 | 0.00 | 0.00 | 0.00 | 45 | 1009.6 |
| 20260504235051 | 23 | 193 | 22.5 | 37.0 | 0.00 | 0.00 | 0.00 | 45 | 1009.7 |
| 20260504234554 | 23 | 193 | 22.5 | 37.0 | 0.00 | 0.00 | 0.00 | 45 | 1009.7 |
| 20260504234054 | 23 | 221 | 25.7 | 35.4 | 0.00 | 0.00 | 0.00 | 45 | 1009.9 |
| 20260504233555 | 23 | 214 | 19.3 | 38.6 | 0.00 | 0.00 | 0.00 | 44 | 1009.9 |
| 20260504233057 | 23 | 202 | 25.7 | 45.1 | 0.00 | 0.00 | 0.00 | 45 | 1010.1 |
| 20260504232555 | 24 | 227 | 29.0 | 45.1 | 0.00 | 0.00 | 0.00 | 44 | 1010.0 |
| 20260504232056 | 24 | 226 | 25.7 | 38.6 | 0.00 | 0.00 | 0.00 | 43 | 1010.0 |
| 20260504231553 | 24 | 233 | 20.9 | 45.1 | 0.00 | 0.00 | 0.00 | 43 | 1010.0 |
| 20260504231056 | 24 | 239 | 22.5 | 45.1 | 0.00 | 0.00 | 0.00 | 42 | 1010.1 |
| 20260504230556 | 24 | 229 | 29.0 | 43.5 | 0.00 | 0.00 | 0.00 | 41 | 1010.1 |
| 20260504230106 | 24 | 219 | 25.7 | 40.2 | 0.00 | 0.00 | 0.00 | 42 | 1010.2 |
| 20260504225557 | 25 | 238 | 22.5 | 40.2 | 0.00 | 0.00 | 0.00 | 44 | 1010.3 |
| 20260504225056 | 25 | 200 | 22.5 | 46.7 | 0.00 | 0.00 | 0.00 | 42 | 1010.2 |
| 20260504224558 | 24 | 192 | 20.9 | 46.7 | 0.00 | 0.00 | 0.00 | 43 | 1010.2 |
| 20260504224056 | 24 | 235 | 29.0 | 45.1 | 0.00 | 0.00 | 0.00 | 43 | 1010.3 |
| 20260504223556 | 24 | 222 | 32.2 | 45.1 | 0.00 | 0.00 | 0.00 | 42 | 1010.3 |
| 20260504223104 | 24 | 226 | 30.6 | 43.5 | 0.00 | 0.00 | 0.00 | 42 | 1010.2 |
| 20260504222558 | 24 | 231 | 30.6 | 40.2 | 0.00 | 0.00 | 0.00 | 42 | 1010.2 |
| 20260504222056 | 25 | 221 | 27.4 | 45.1 | 0.00 | 0.00 | 0.00 | 44 | 1010.2 |
| 20260504221603 | 24 | 208 | 33.8 | 45.1 | 0.00 | 0.00 | 0.00 | 43 | 1010.5 |
| 20260504221056 | 25 | 221 | 29.0 | 45.1 | 0.00 | 0.00 | 0.00 | 43 | 1010.5 |
| 20260504220556 | 25 | 214 | 32.2 | 45.1 | 0.00 | 0.00 | 0.00 | 42 | 1010.5 |
| 20260504220059 | 25 | 217 | 32.2 | 49.9 | 0.00 | 0.00 | 0.00 | 42 | 1010.5 |